Location: Wald
(31.7579°N, 86.6655°W)
Time: 10:59:41
(UTC+00:00)

SEDSat Delta rocket - Pass Details

Date: 14 July 2020
Orbit: 533 x 1000 km, 31.4° (Epoch: 08 August)

Event Time Altitude Azimuth Distance (km) Brightness Sun altitude
Rises 01:41:49 0° 240° (WSW) 3,039 7.0 -9.7°
Reaches altitude 10° 01:44:07 10° 235° (SW) 2,196 6.2 -10.1°
Maximum altitude 01:49:11 52° 160° (SSE) 981 3.8 -11.0°
Drops below altitude 10° 01:54:59 10° 86° (E) 2,518 5.7 -12.0°
Enters shadow 01:55:46 - 84° (E) 2,797 6.0 -12.2°
